GW0821 Weather Reports


time (UTC)temp
F
wind
direction
speed
knots
gust
knots
rain 1hr
in
rain 24hr
in
rain mn
in
humidity
%
barometer
mb
20260509190103 54 61 0.9 4.3 0.01 0.65 0.65 95 1009.7
20260509184551 55 35 1.7 4.3 0.01 0.65 0.65 95 1009.5
20260509183049 55 0 0.9 3.5 0.03 0.64 0.64 95 1009.5
20260509181545 55 132 1.7 5.2 0.07 0.63 0.63 95 1009.3
20260509180051 55 0 1.7 6.1 0.15 0.63 0.63 95 1008.9
20260509174550 55 0 0.9 7.0 0.23 0.63 0.63 95 1008.9
20260509173051 55 342 0.9 3.5 0.25 0.60 0.60 95 1009.4
20260509171548 56 0 0.0 0.9 0.33 0.55 0.55 95 1010.0
20260509170038 56 0 0.0 0.0 0.31 0.48 0.48 94 1010.6
20260509164551 56 0 0.0 0.0 0.27 0.40 0.40 94 1010.8
20260509163051 56 0 0.0 1.7 0.22 0.35 0.35 93 1011.1
20260509161556 56 113 0.0 4.3 0.11 0.22 0.22 92 1011.4
20260509160053 57 129 0.0 0.9 0.11 0.16 0.16 93 1011.3
20260509154550 57 342 0.0 0.9 0.12 0.12 0.12 92 1010.8
20260509153054 57 201 0.9 3.5 0.12 0.12 0.12 91 1009.3
20260509151548 57 339 1.7 6.1 0.11 0.11 0.11 90 1008.8
20260509150048 59 0 0.0 0.0 0.04 0.04 0.04 88 1009.1
20260509144547 60 0 0.0 0.0 0.00 0.00 0.00 83 1009.9
20260509143038 61 0 0.0 1.7 0.00 0.00 0.00 78 1010.5
20260509141544 62 153 0.9 3.5 0.00 0.00 0.00 74 1010.9
20260509140051 62 242 1.7 3.5 0.00 0.00 0.00 74 1011.1
20260509134623 62 286 1.7 5.2 0.00 0.00 0.00 74 1010.8
20260509133047 63 264 0.9 3.5 0.00 0.00 0.00 72 1010.6
20260509131551 63 0 0.0 1.7 0.00 0.00 0.00 72 1010.5
20260509130041 63 276 0.0 0.9 0.00 0.00 0.00 71 1010.2
20260509124543 63 0 0.0 2.6 0.00 0.00 0.00 72 1010.8
20260509123043 62 0 0.0 3.5 0.00 0.00 0.00 74 1010.9
20260509121550 62 285 0.0 5.2 0.00 0.00 0.00 74 1011.2
20260509120050 62 219 1.7 7.8 0.00 0.00 0.00 74 1011.7
20260509114548 63 196 4.3 9.6 0.00 0.00 0.00 73 1011.9
20260509113048 64 262 2.6 7.8 0.00 0.00 0.00 68 1012.0
20260509111544 64 179 2.6 7.0 0.00 0.00 0.00 69 1011.8
20260509110043 64 226 1.7 4.3 0.00 0.00 0.00 70 1011.9
20260509104540 64 0 0.0 4.3 0.00 0.00 0.00 73 1012.0
20260509103053 64 158 0.0 1.7 0.00 0.00 0.00 71 1011.9
20260509101553 64 208 0.0 3.5 0.00 0.00 0.00 71 1011.9
20260509100044 65 0 0.0 1.7 0.00 0.00 0.00 71 1012.0
20260509094544 64 107 0.0 3.5 0.00 0.00 0.00 71 1012.0
20260509093054 63 222 0.9 2.6 0.00 0.00 0.00 74 1011.8
20260509091548 62 0 0.0 2.6 0.00 0.00 0.00 76 1011.7
20260509090037 61 0 0.9 5.2 0.00 0.00 0.00 76 1011.8
20260509084544 61 88 1.7 5.2 0.00 0.00 0.00 77 1011.8
20260509083052 60 101 0.9 5.2 0.00 0.00 0.00 79 1011.5
20260509081550 59 0 1.7 5.2 0.00 0.00 0.00 79 1011.7
20260509080044 58 256 0.9 5.2 0.00 0.00 0.00 81 1011.9
20260509074553 57 251 0.0 5.2 0.00 0.00 0.00 83 1012.1
20260509073043 56 257 0.0 4.3 0.00 0.00 0.00 84 1012.5
20260509071540 56 295 2.6 7.0 0.00 0.00 0.00 84 1012.5
20260509070049 56 0 1.7 4.3 0.00 0.00 0.00 85 1012.5
20260509064555 55 0 0.0 2.6 0.00 0.00 0.00 87 1012.7
20260509063046 54 0 0.0 2.6 0.00 0.00 0.00 89 1012.7
20260509061544 53 0 0.0 2.6 0.00 0.00 0.00 89 1013.0
20260509060044 52 0 0.0 0.0 0.00 0.00 0.00 89 1012.8
20260509054542 52 0 0.0 0.0 0.00 0.00 0.00 90 1012.9
20260509053055 51 0 0.0 0.0 0.00 0.00 0.00 90 1013.0
20260509051547 51 0 0.0 0.9 0.00 0.00 0.00 90 1013.0
20260509050046 51 0 0.0 1.7 0.00 0.00 0.00 90 1012.9
20260509044550 51 0 0.0 1.7 0.00 0.00 0.00 90 1012.8
20260509043055 51 0 0.0 0.0 0.00 0.00 0.00 90 1013.0
20260509041540 51 0 0.0 0.0 0.00 0.00 0.00 91 1012.9
20260509040043 51 0 0.0 0.0 0.00 0.00 0.00 91 1013.0
20260509034551 50 0 0.0 0.0 0.00 0.00 0.00 91 1013.0
20260509033049 50 0 0.0 0.0 0.00 0.00 0.00 91 1013.1
20260509031545 50 0 0.0 0.0 0.00 0.00 0.00 91 1013.1
20260509030040 50 0 0.0 0.0 0.00 0.00 0.00 91 1013.1
20260509024540 51 0 0.0 0.0 0.00 0.00 0.00 90 1013.2
20260509023044 51 0 0.0 0.0 0.00 0.00 0.00 90 1012.9
20260509021549 51 0 0.0 2.6 0.00 0.00 0.00 90 1013.3
20260509020043 51 0 0.0 1.7 0.00 0.00 0.00 90 1013.5
20260509014543 51 0 0.0 0.0 0.00 0.00 0.00 90 1013.7
20260509013053 51 0 0.0 0.0 0.00 0.00 0.00 91 1013.7
20260509011546 50 0 0.0 0.0 0.00 0.00 0.00 91 1013.8
20260509010039 50 0 0.0 0.9 0.00 0.00 0.00 91 1013.9
20260509004554 50 0 0.0 0.0 0.00 0.00 0.00 91 1014.1
20260509003045 50 0 0.0 0.0 0.00 0.00 0.00 92 1014.1
20260509001550 49 0 0.0 0.0 0.00 0.00 0.00 92 1014.3
20260509000041 49 0 0.0 0.0 0.00 0.00 0.00 93 1014.3
20260508234541 48 0 0.0 0.0 0.00 0.00 0.00 92 1014.3
20260508233038 48 0 0.0 0.0 0.00 0.00 0.00 93 1014.4
20260508231625 49 0 0.0 0.0 0.00 0.00 0.00 92 1014.4
20260508230043 49 0 0.0 0.0 0.00 0.00 0.00 92 1014.3
20260508224549 49 0 0.0 0.0 0.00 0.00 0.00 91 1014.3
20260508223047 50 0 0.0 0.0 0.00 0.00 0.00 91 1014.5
20260508221539 50 0 0.0 0.0 0.00 0.00 0.00 91 1014.5
20260508220041 51 0 0.0 0.0 0.00 0.00 0.00 91 1014.5
20260508214553 51 0 0.0 0.0 0.00 0.00 0.00 90 1014.5
20260508213041 52 0 0.0 0.0 0.00 0.00 0.00 90 1014.4
20260508211549 52 0 0.0 0.0 0.00 0.00 0.00 89 1014.4
20260508210053 53 0 0.0 0.0 0.00 0.00 0.00 89 1014.3
20260508204541 53 0 0.0 0.0 0.00 0.00 0.00 88 1014.3
20260508203047 54 0 0.0 0.0 0.00 0.00 0.00 88 1013.9
20260508201544 55 0 0.0 0.9 0.00 0.00 0.00 87 1013.8
20260508200044 55 0 0.0 0.0 0.00 0.00 0.00 85 1013.6
20260508194541 56 0 0.0 0.9 0.00 0.00 0.00 84 1013.6
20260508193100 57 136 0.0 3.5 0.00 0.00 0.00 84 1013.4
20260508191551 58 151 0.9 2.6 0.00 0.00 0.00 83 1013.2